Regional Weather Roundup
Issued by NWS

Home | Current Version | Previous Version | Text Only | Print | Product List | Glossary Off
Versions: 1 2 3 4 5 6 7 8 9 10 11 12 13 14 15 16 17 18 19 20 21 22 23 24 25 26 27 28 29 30 31 32 33 34 35 36 37 38 39 40 41 42 43 44 45 46 47 48 49 50

000
ASUS43 KFSD 030802
RWRSD

WEATHER ROUNDUP FOR SOUTH DAKOTA
NATIONAL WEATHER SERVICE SIOUX FALLS SD
300 AM CDT SUN MAY 03 2015

NOTE: "FAIR" INDICATES FEW OR NO CLOUDS BELOW 12,000 FEET WITH NO
SIGNIFICANT WEATHER AND/OR OBSTRUCTIONS TO VISIBILITY.


SDZ001>005-009-010-012>017-030900-
NORTHWEST AND NORTH CENTRAL SOUTH DAKOTA

CITY           SKY/WX    TMP DP  RH WIND       PRES   REMARKS
BUFFALO          N/A     55  35  47 N18       29.78R
FAITH            N/A     49  30  48 W9        29.78R
MOBRIDGE       PTCLDY    47  34  60 N8        29.68R
$$

SDZ012>016-024>037-041>051-057-063-072>074-030900-
SOUTHWEST AND SOUTH CENTRAL SOUTH DAKOTA

CITY           SKY/WX    TMP DP  RH WIND       PRES   REMARKS
RAPID CTY ARPT MOCLDY    53  32  44 NW9       29.77S
PIERRE         CLEAR     56  31  38 CALM      29.65F
CUSTER         MOCLDY    42  29  59 NW3       29.87S
ELLSWORTH AFB  MOCLDY    50  34  53 NW5       29.77S
PHILIP         PTCLDY    46  32  58 W7        29.71S
PINE RIDGE     MOCLDY    45  38  76 E5        29.76F
WINNER         FAIR      62  38  40 SW6       29.69F
$$

SDZ004>011-016>023-039-040-030900-
NORTHEAST SOUTH DAKOTA

CITY           SKY/WX    TMP DP  RH WIND       PRES   REMARKS
ABERDEEN       PTCLDY    52  46  80 NE6       29.65S
WATERTOWN      PTCLDY    61  52  72 E8        29.70S
BROOKINGS      MOCLDY    59  54  82 SE14      29.69F
SISSETON         N/A     60  52  74 S9        29.67F
$$

SDZ017-020-022-023-036>040-048>070-030900-
SOUTHEAST SOUTH DAKOTA

CITY           SKY/WX    TMP DP  RH WIND       PRES   REMARKS
SIOUX FALLS    CLOUDY    62  54  74 S9        29.69F
HURON          CLOUDY    63  54  72 E7        29.65F
MITCHELL       MOCLDY    60  55  83 CALM      29.69R
YANKTON        CLOUDY    72  52  49 S24G30    29.67F
$$

ABBREVIATIONS USED IN REMARKS
   TC - TEMPERATURE IN CELSIUS
  WCI - WIND CHILL INDEX
   HX - HEAT INDEX
  VSB - VISIBILITY



USA.gov is the U.S. government's official web portal to all federal, state and local government web resources and services.